Year,Month,Day,Hour,Minute,Value (Times are PST for windgust in km/hr)
2017,05,26,00,06,1.60
2017,05,26,00,24,1.60
2017,05,26,00,59,1.60
2017,05,26,01,45,1.60
2017,05,26,01,48,1.60
2017,05,26,01,53,1.60
2017,05,26,02,15,1.60
2017,05,26,02,16,1.60
2017,05,26,02,17,1.60
2017,05,26,02,36,1.60
2017,05,26,02,59,1.60
2017,05,26,03,01,1.60
2017,05,26,03,48,1.60
2017,05,26,03,50,1.60
2017,05,26,03,52,1.60
2017,05,26,03,53,1.60
2017,05,26,03,54,4.80
2017,05,26,03,55,4.80
2017,05,26,03,56,1.60
2017,05,26,04,39,3.20
2017,05,26,04,40,3.20
2017,05,26,04,41,3.20
2017,05,26,04,42,3.20
2017,05,26,04,43,1.60
2017,05,26,05,42,1.60
2017,05,26,05,52,1.60
2017,05,26,05,53,1.60
2017,05,26,05,56,1.60
2017,05,26,05,57,4.80
2017,05,26,05,58,3.20
2017,05,26,05,59,3.20
2017,05,26,06,00,3.20
2017,05,26,06,01,3.20
2017,05,26,06,02,1.60
2017,05,26,06,03,1.60
2017,05,26,06,05,1.60
2017,05,26,06,06,3.20
2017,05,26,06,07,3.20
2017,05,26,06,08,3.20
2017,05,26,06,09,3.20
2017,05,26,07,15,1.60
2017,05,26,07,17,3.20
2017,05,26,07,19,1.60
2017,05,26,07,21,1.60
2017,05,26,07,26,3.20
2017,05,26,07,27,1.60
2017,05,26,07,28,1.60
2017,05,26,07,32,1.60
2017,05,26,07,35,1.60
2017,05,26,07,37,1.60
2017,05,26,07,42,1.60
2017,05,26,07,46,1.60
2017,05,26,07,47,3.20
2017,05,26,07,48,3.20
2017,05,26,07,49,3.20
2017,05,26,07,50,4.80
2017,05,26,07,51,4.80
2017,05,26,07,52,3.20
2017,05,26,07,53,3.20
2017,05,26,07,54,4.80
2017,05,26,07,55,4.80
2017,05,26,07,56,1.60
2017,05,26,07,57,1.60
2017,05,26,07,58,6.40
2017,05,26,07,59,3.20
2017,05,26,08,00,4.80
2017,05,26,08,01,1.60
2017,05,26,08,02,3.20
2017,05,26,08,03,4.80
2017,05,26,08,04,3.20
2017,05,26,08,05,3.20
2017,05,26,08,06,3.20
2017,05,26,08,07,3.20
2017,05,26,08,08,4.80
2017,05,26,08,09,3.20
2017,05,26,08,10,4.80
2017,05,26,08,11,4.80
2017,05,26,08,12,4.80
2017,05,26,08,13,3.20
2017,05,26,08,14,3.20
2017,05,26,08,15,3.20
2017,05,26,08,16,4.80
2017,05,26,08,17,1.60
2017,05,26,08,18,1.60
2017,05,26,08,19,4.80
2017,05,26,08,20,4.80
2017,05,26,08,21,1.60
2017,05,26,08,22,1.60
2017,05,26,08,23,3.20
2017,05,26,08,24,3.20
2017,05,26,08,25,3.20
2017,05,26,08,26,3.20
2017,05,26,08,27,4.80
2017,05,26,08,28,3.20
2017,05,26,08,29,4.80
2017,05,26,08,30,4.80
2017,05,26,08,31,4.80
2017,05,26,08,32,4.80
2017,05,26,08,33,1.60
2017,05,26,08,34,1.60
2017,05,26,08,36,3.20
2017,05,26,08,37,1.60
2017,05,26,08,39,1.60
2017,05,26,08,40,1.60
2017,05,26,08,41,1.60
2017,05,26,08,42,1.60
2017,05,26,08,43,3.20
2017,05,26,08,44,3.20
2017,05,26,08,45,1.60
2017,05,26,08,46,3.20
2017,05,26,08,47,3.20
2017,05,26,08,48,3.20
2017,05,26,08,49,1.60
2017,05,26,08,50,3.20
2017,05,26,08,51,3.20
2017,05,26,08,52,4.80
2017,05,26,08,53,3.20
2017,05,26,08,54,4.80
2017,05,26,08,55,6.40
2017,05,26,08,56,6.40
2017,05,26,08,57,4.80
2017,05,26,08,58,4.80
2017,05,26,08,59,3.20
2017,05,26,09,00,4.80
2017,05,26,09,01,4.80
2017,05,26,09,02,6.40
2017,05,26,09,03,4.80
2017,05,26,09,04,1.60
2017,05,26,09,05,3.20
2017,05,26,09,06,3.20
2017,05,26,09,07,4.80
2017,05,26,09,08,3.20
2017,05,26,09,09,3.20
2017,05,26,09,10,4.80
2017,05,26,09,11,4.80
2017,05,26,09,12,6.40
2017,05,26,09,13,4.80
2017,05,26,09,14,3.20
2017,05,26,09,19,1.60
2017,05,26,09,20,1.60
2017,05,26,09,21,4.80
2017,05,26,09,22,1.60
2017,05,26,09,23,3.20
2017,05,26,09,24,4.80
2017,05,26,09,25,4.80
2017,05,26,09,26,4.80
2017,05,26,09,27,4.80
2017,05,26,09,28,6.40
2017,05,26,09,29,8.10
2017,05,26,09,30,4.80
2017,05,26,09,31,4.80
2017,05,26,09,32,3.20
2017,05,26,09,33,4.80
2017,05,26,09,34,6.40
2017,05,26,09,35,6.40
2017,05,26,09,36,1.60
2017,05,26,09,37,1.60
2017,05,26,09,38,4.80
2017,05,26,09,39,3.20
2017,05,26,09,40,1.60
2017,05,26,09,41,1.60
2017,05,26,09,42,1.60
2017,05,26,09,43,1.60
2017,05,26,09,44,1.60
2017,05,26,09,45,1.60
2017,05,26,09,46,1.60
2017,05,26,09,47,3.20
2017,05,26,09,48,6.40
2017,05,26,09,49,4.80
2017,05,26,09,50,4.80
2017,05,26,09,51,1.60
2017,05,26,09,52,9.60
2017,05,26,09,53,9.60
2017,05,26,09,54,9.60
2017,05,26,09,55,4.80
2017,05,26,09,56,1.60
2017,05,26,09,57,3.20
2017,05,26,09,58,4.80
2017,05,26,09,59,3.20
2017,05,26,10,00,6.40
2017,05,26,10,01,6.40
2017,05,26,10,02,1.60
2017,05,26,10,03,8.10
2017,05,26,10,04,6.40
2017,05,26,10,05,4.80
2017,05,26,10,06,8.10
2017,05,26,10,07,6.40
2017,05,26,10,08,8.10
2017,05,26,10,09,9.60
2017,05,26,10,10,9.60
2017,05,26,10,11,9.60
2017,05,26,10,12,12.90
2017,05,26,10,13,11.30
2017,05,26,10,14,9.60
2017,05,26,10,15,14.50
2017,05,26,10,16,14.50
2017,05,26,10,17,16.10
2017,05,26,10,18,16.10
2017,05,26,10,19,16.10
2017,05,26,10,20,16.10
2017,05,26,10,21,11.30
2017,05,26,10,22,14.50
2017,05,26,10,23,14.50
2017,05,26,10,24,12.90
2017,05,26,10,25,9.60
2017,05,26,10,26,11.30
2017,05,26,10,27,8.10
2017,05,26,10,28,9.60
2017,05,26,10,29,11.30
2017,05,26,10,30,14.50
2017,05,26,10,31,11.30
2017,05,26,10,32,9.60
2017,05,26,10,33,12.90
2017,05,26,10,34,14.50
2017,05,26,10,35,12.90
2017,05,26,10,36,11.30
2017,05,26,10,37,6.40
2017,05,26,10,38,11.30
2017,05,26,10,39,11.30
2017,05,26,10,40,11.30
2017,05,26,10,41,12.90
2017,05,26,10,42,12.90
2017,05,26,10,43,14.50
2017,05,26,10,44,11.30
2017,05,26,10,45,16.10
2017,05,26,10,46,12.90
2017,05,26,10,47,14.50
2017,05,26,10,48,12.90
2017,05,26,10,49,12.90
2017,05,26,10,50,12.90
2017,05,26,10,51,8.10
2017,05,26,10,52,12.90
2017,05,26,10,53,11.30
2017,05,26,10,54,8.10
2017,05,26,10,55,8.10
2017,05,26,10,56,12.90
2017,05,26,10,57,11.30
2017,05,26,10,58,11.30
2017,05,26,10,59,11.30
2017,05,26,11,00,9.60
2017,05,26,11,01,9.60
2017,05,26,11,02,12.90
2017,05,26,11,03,8.10
2017,05,26,11,04,12.90
2017,05,26,11,05,11.30
2017,05,26,11,06,11.30
2017,05,26,11,07,11.30
2017,05,26,11,08,11.30
2017,05,26,11,09,11.30
2017,05,26,11,10,14.50
2017,05,26,11,11,11.30
2017,05,26,11,12,11.30
2017,05,26,11,13,4.80
2017,05,26,11,14,6.40
2017,05,26,11,15,8.10
2017,05,26,11,16,9.60
2017,05,26,11,17,8.10
2017,05,26,11,18,8.10
2017,05,26,11,19,11.30
2017,05,26,11,20,9.60
2017,05,26,11,21,11.30
2017,05,26,11,22,9.60
2017,05,26,11,23,9.60
2017,05,26,11,24,3.20
2017,05,26,11,25,6.40
2017,05,26,11,26,8.10
2017,05,26,11,27,4.80
2017,05,26,11,28,6.40
2017,05,26,11,29,9.60
2017,05,26,11,30,8.10
2017,05,26,11,31,8.10
2017,05,26,11,32,8.10
2017,05,26,11,33,3.20
2017,05,26,11,34,11.30
2017,05,26,11,35,12.90
2017,05,26,11,36,9.60
2017,05,26,11,37,14.50
2017,05,26,11,38,14.50
2017,05,26,11,39,14.50
2017,05,26,11,40,17.70
2017,05,26,11,41,14.50
2017,05,26,11,42,12.90
2017,05,26,11,43,14.50
2017,05,26,11,44,12.90
2017,05,26,11,45,14.50
2017,05,26,11,46,12.90
2017,05,26,11,47,11.30
2017,05,26,11,48,12.90
2017,05,26,11,49,9.60
2017,05,26,11,50,12.90
2017,05,26,11,51,9.60
2017,05,26,11,52,14.50
2017,05,26,11,53,14.50
2017,05,26,11,54,12.90
2017,05,26,11,55,14.50
2017,05,26,11,56,14.50
2017,05,26,11,57,9.60
2017,05,26,11,58,8.10
2017,05,26,11,59,12.90
2017,05,26,12,00,9.60
2017,05,26,12,01,11.30
2017,05,26,12,02,11.30
2017,05,26,12,03,11.30
2017,05,26,12,04,14.50
2017,05,26,12,05,14.50
2017,05,26,12,06,16.10
2017,05,26,12,07,16.10
2017,05,26,12,08,12.90
2017,05,26,12,09,17.70
2017,05,26,12,10,14.50
2017,05,26,12,11,12.90
2017,05,26,12,12,17.70
2017,05,26,12,13,16.10
2017,05,26,12,14,11.30
2017,05,26,12,15,12.90
2017,05,26,12,16,16.10
2017,05,26,12,17,14.50
2017,05,26,12,18,16.10
2017,05,26,12,19,14.50
2017,05,26,12,20,16.10
2017,05,26,12,21,14.50
2017,05,26,12,22,12.90
2017,05,26,12,23,12.90
2017,05,26,12,24,16.10
2017,05,26,12,25,16.10
2017,05,26,12,26,12.90
2017,05,26,12,27,17.70
2017,05,26,12,28,14.50
2017,05,26,12,29,16.10
2017,05,26,12,30,12.90
2017,05,26,12,31,17.70
2017,05,26,12,32,17.70
2017,05,26,12,33,14.50
2017,05,26,12,34,12.90
2017,05,26,12,35,14.50
2017,05,26,12,36,16.10
2017,05,26,12,37,12.90
2017,05,26,12,38,14.50
2017,05,26,12,39,16.10
2017,05,26,12,40,8.10
2017,05,26,12,41,11.30
2017,05,26,12,42,16.10
2017,05,26,12,43,12.90
2017,05,26,12,44,17.70
2017,05,26,12,45,16.10
2017,05,26,12,46,16.10
2017,05,26,12,47,17.70
2017,05,26,12,48,16.10
2017,05,26,12,49,11.30
2017,05,26,12,50,9.60
2017,05,26,12,51,12.90
2017,05,26,12,52,14.50
2017,05,26,12,53,14.50
2017,05,26,12,54,11.30
2017,05,26,12,55,16.10
2017,05,26,12,56,14.50
2017,05,26,12,57,12.90
2017,05,26,12,58,8.10
2017,05,26,12,59,11.30
2017,05,26,13,00,9.60
2017,05,26,13,01,9.60
2017,05,26,13,02,11.30
2017,05,26,13,03,12.90
2017,05,26,13,04,12.90
2017,05,26,13,05,6.40
2017,05,26,13,06,9.60
2017,05,26,13,07,11.30
2017,05,26,13,08,12.90
2017,05,26,13,09,14.50
2017,05,26,13,10,14.50
2017,05,26,13,11,12.90
2017,05,26,13,12,14.50
2017,05,26,13,13,12.90
2017,05,26,13,14,12.90
2017,05,26,13,15,11.30
2017,05,26,13,16,12.90
2017,05,26,13,17,11.30
2017,05,26,13,18,12.90
2017,05,26,13,19,16.10
2017,05,26,13,20,16.10
2017,05,26,13,21,12.90
2017,05,26,13,22,14.50
2017,05,26,13,23,12.90
2017,05,26,13,24,16.10
2017,05,26,13,25,12.90
2017,05,26,13,26,11.30
2017,05,26,13,27,14.50
2017,05,26,13,28,9.60
2017,05,26,13,29,12.90
2017,05,26,13,30,14.50
2017,05,26,13,31,14.50
2017,05,26,13,32,17.70
2017,05,26,13,33,16.10
2017,05,26,13,34,12.90
2017,05,26,13,35,12.90
2017,05,26,13,36,14.50
2017,05,26,13,37,14.50
2017,05,26,13,38,12.90
2017,05,26,13,39,16.10
2017,05,26,13,40,16.10
2017,05,26,13,41,11.30
2017,05,26,13,42,14.50
2017,05,26,13,43,12.90
2017,05,26,13,44,14.50
2017,05,26,13,45,11.30
2017,05,26,13,46,14.50
2017,05,26,13,47,12.90
2017,05,26,13,48,11.30
2017,05,26,13,49,14.50
2017,05,26,13,50,14.50
2017,05,26,13,51,14.50
2017,05,26,13,52,16.10
2017,05,26,13,53,14.50
2017,05,26,13,54,11.30
2017,05,26,13,55,12.90
2017,05,26,13,56,12.90
2017,05,26,13,57,8.10
2017,05,26,13,58,19.30
2017,05,26,13,59,16.10
2017,05,26,14,00,14.50
2017,05,26,14,01,14.50
2017,05,26,14,02,16.10
2017,05,26,14,03,14.50
2017,05,26,14,04,14.50
2017,05,26,14,05,16.10
2017,05,26,14,06,11.30
2017,05,26,14,07,16.10
2017,05,26,14,08,17.70
2017,05,26,14,09,20.90
2017,05,26,14,10,14.50
2017,05,26,14,11,17.70
2017,05,26,14,12,14.50
2017,05,26,14,13,14.50
2017,05,26,14,14,14.50
2017,05,26,14,15,12.90
2017,05,26,14,16,14.50
2017,05,26,14,17,12.90
2017,05,26,14,18,14.50
2017,05,26,14,19,16.10
2017,05,26,14,20,16.10
2017,05,26,14,21,16.10
2017,05,26,14,22,12.90
2017,05,26,14,23,14.50
2017,05,26,14,24,11.30
2017,05,26,14,25,11.30
2017,05,26,14,26,11.30
2017,05,26,14,27,12.90
2017,05,26,14,28,11.30
2017,05,26,14,29,9.60
2017,05,26,14,30,11.30
2017,05,26,14,31,11.30
2017,05,26,14,32,14.50
2017,05,26,14,33,16.10
2017,05,26,14,34,9.60
2017,05,26,14,35,9.60
2017,05,26,14,36,12.90
2017,05,26,14,37,16.10
2017,05,26,14,38,14.50
2017,05,26,14,39,16.10
2017,05,26,14,40,17.70
2017,05,26,14,41,19.30
2017,05,26,14,42,16.10
2017,05,26,14,43,16.10
2017,05,26,14,44,12.90
2017,05,26,14,45,11.30
2017,05,26,14,46,16.10
2017,05,26,14,47,16.10
2017,05,26,14,48,16.10
2017,05,26,14,49,9.60
2017,05,26,14,50,14.50
2017,05,26,14,51,9.60
2017,05,26,14,52,14.50
2017,05,26,14,53,11.30
2017,05,26,14,54,8.10
2017,05,26,14,55,9.60
2017,05,26,14,56,11.30
2017,05,26,14,57,8.10
2017,05,26,14,58,11.30
2017,05,26,14,59,12.90
2017,05,26,15,00,12.90
2017,05,26,15,01,12.90
2017,05,26,15,02,11.30
2017,05,26,15,03,14.50
2017,05,26,15,04,14.50
2017,05,26,15,05,14.50
2017,05,26,15,06,14.50
2017,05,26,15,07,16.10
2017,05,26,15,08,14.50
2017,05,26,15,09,14.50
2017,05,26,15,10,14.50
2017,05,26,15,11,14.50
2017,05,26,15,12,14.50
2017,05,26,15,13,12.90
2017,05,26,15,14,14.50
2017,05,26,15,15,9.60
2017,05,26,15,16,12.90
2017,05,26,15,17,11.30
2017,05,26,15,18,12.90
2017,05,26,15,19,12.90
2017,05,26,15,20,11.30
2017,05,26,15,21,14.50
2017,05,26,15,22,14.50
2017,05,26,15,23,11.30
2017,05,26,15,24,14.50
2017,05,26,15,25,14.50
2017,05,26,15,26,9.60
2017,05,26,15,27,14.50
2017,05,26,15,28,12.90
2017,05,26,15,29,14.50
2017,05,26,15,30,12.90
2017,05,26,15,31,11.30
2017,05,26,15,32,11.30
2017,05,26,15,33,12.90
2017,05,26,15,34,9.60
2017,05,26,15,35,8.10
2017,05,26,15,36,11.30
2017,05,26,15,37,9.60
2017,05,26,15,38,6.40
2017,05,26,15,39,6.40
2017,05,26,15,40,6.40
2017,05,26,15,41,6.40
2017,05,26,15,42,8.10
2017,05,26,15,43,8.10
2017,05,26,15,44,8.10
2017,05,26,15,45,4.80
2017,05,26,15,46,4.80
2017,05,26,15,47,8.10
2017,05,26,15,48,8.10
2017,05,26,15,49,8.10
2017,05,26,15,50,4.80
2017,05,26,15,51,6.40
2017,05,26,15,52,9.60
2017,05,26,15,53,8.10
2017,05,26,15,54,9.60
2017,05,26,15,55,11.30
2017,05,26,15,56,9.60
2017,05,26,15,57,8.10
2017,05,26,15,58,11.30
2017,05,26,15,59,8.10
2017,05,26,16,00,9.60
2017,05,26,16,01,8.10
2017,05,26,16,02,11.30
2017,05,26,16,03,9.60
2017,05,26,16,04,9.60
2017,05,26,16,05,9.60
2017,05,26,16,06,9.60
2017,05,26,16,07,11.30
2017,05,26,16,08,9.60
2017,05,26,16,09,8.10
2017,05,26,16,10,8.10
2017,05,26,16,11,8.10
2017,05,26,16,12,9.60
2017,05,26,16,13,8.10
2017,05,26,16,14,4.80
2017,05,26,16,15,6.40
2017,05,26,16,16,6.40
2017,05,26,16,17,6.40
2017,05,26,16,18,1.60
2017,05,26,16,19,4.80
2017,05,26,16,20,3.20
2017,05,26,16,21,4.80
2017,05,26,16,22,9.60
2017,05,26,16,23,11.30
2017,05,26,16,24,8.10
2017,05,26,16,25,4.80
2017,05,26,16,26,6.40
2017,05,26,16,27,9.60
2017,05,26,16,28,8.10
2017,05,26,16,29,8.10
2017,05,26,16,30,4.80
2017,05,26,16,31,6.40
2017,05,26,16,32,9.60
2017,05,26,16,33,6.40
2017,05,26,16,34,6.40
2017,05,26,16,35,6.40
2017,05,26,16,36,8.10
2017,05,26,16,37,6.40
2017,05,26,16,38,1.60
2017,05,26,16,39,4.80
2017,05,26,16,40,3.20
2017,05,26,16,41,8.10
2017,05,26,16,42,8.10
2017,05,26,16,43,6.40
2017,05,26,16,44,6.40
2017,05,26,16,45,8.10
2017,05,26,16,46,8.10
2017,05,26,16,47,8.10
2017,05,26,16,48,11.30
2017,05,26,16,49,6.40
2017,05,26,16,50,3.20
2017,05,26,16,51,3.20
2017,05,26,16,52,1.60
2017,05,26,16,53,1.60
2017,05,26,16,54,1.60
2017,05,26,16,55,1.60
2017,05,26,16,56,6.40
2017,05,26,16,57,4.80
2017,05,26,16,58,3.20
2017,05,26,16,59,8.10
2017,05,26,17,00,6.40
2017,05,26,17,01,9.60
2017,05,26,17,02,6.40
2017,05,26,17,03,6.40
2017,05,26,17,04,6.40
2017,05,26,17,05,1.60
2017,05,26,17,06,1.60
2017,05,26,17,07,6.40
2017,05,26,17,08,4.80
2017,05,26,17,09,6.40
2017,05,26,17,10,8.10
2017,05,26,17,11,4.80
2017,05,26,17,12,4.80
2017,05,26,17,13,4.80
2017,05,26,17,14,6.40
2017,05,26,17,15,4.80
2017,05,26,17,16,6.40
2017,05,26,17,17,8.10
2017,05,26,17,18,4.80
2017,05,26,17,19,6.40
2017,05,26,17,20,1.60
2017,05,26,17,21,3.20
2017,05,26,17,22,4.80
2017,05,26,17,23,3.20
2017,05,26,17,24,6.40
2017,05,26,17,25,3.20
2017,05,26,17,26,4.80
2017,05,26,17,27,3.20
2017,05,26,17,28,4.80
2017,05,26,17,29,4.80
2017,05,26,17,30,4.80
2017,05,26,17,31,3.20
2017,05,26,17,32,1.60
2017,05,26,17,33,3.20
2017,05,26,17,34,3.20
2017,05,26,17,35,3.20
2017,05,26,17,36,3.20
2017,05,26,17,37,1.60
2017,05,26,17,39,1.60
2017,05,26,17,40,3.20
2017,05,26,17,41,1.60
2017,05,26,17,42,1.60
2017,05,26,17,43,1.60
2017,05,26,17,44,3.20
2017,05,26,17,45,1.60
2017,05,26,17,46,3.20
2017,05,26,17,47,6.40
2017,05,26,17,48,4.80
2017,05,26,17,49,6.40
2017,05,26,17,50,3.20
2017,05,26,17,51,6.40
2017,05,26,17,52,4.80
2017,05,26,17,53,8.10
2017,05,26,17,54,6.40
2017,05,26,17,55,6.40
2017,05,26,17,56,4.80
2017,05,26,17,57,4.80
2017,05,26,17,58,4.80
2017,05,26,17,59,3.20
2017,05,26,18,00,3.20
2017,05,26,18,01,1.60
2017,05,26,18,02,3.20
2017,05,26,18,03,3.20
2017,05,26,18,04,3.20
2017,05,26,18,05,6.40
2017,05,26,18,06,6.40
2017,05,26,18,07,4.80
2017,05,26,18,08,4.80
2017,05,26,18,09,1.60
2017,05,26,18,10,3.20
2017,05,26,18,11,4.80
2017,05,26,18,12,6.40
2017,05,26,18,13,4.80
2017,05,26,18,14,4.80
2017,05,26,18,15,6.40
2017,05,26,18,16,4.80
2017,05,26,18,17,6.40
2017,05,26,18,18,6.40
2017,05,26,18,19,4.80
2017,05,26,18,20,4.80
2017,05,26,18,21,4.80
2017,05,26,18,22,4.80
2017,05,26,18,23,6.40
2017,05,26,18,24,4.80
2017,05,26,18,25,4.80
2017,05,26,18,26,6.40
2017,05,26,18,27,6.40
2017,05,26,18,28,4.80
2017,05,26,18,30,3.20
2017,05,26,18,31,6.40
2017,05,26,18,32,4.80
2017,05,26,18,33,4.80
2017,05,26,18,34,3.20
2017,05,26,18,35,4.80
2017,05,26,18,36,4.80
2017,05,26,18,37,4.80
2017,05,26,18,38,4.80
2017,05,26,18,39,3.20
2017,05,26,18,40,1.60
2017,05,26,18,41,1.60
2017,05,26,18,42,1.60
2017,05,26,18,43,1.60
2017,05,26,18,44,4.80
2017,05,26,18,45,6.40
2017,05,26,18,46,3.20
2017,05,26,18,47,6.40
2017,05,26,18,48,4.80
2017,05,26,18,49,4.80
2017,05,26,18,50,4.80
2017,05,26,18,51,1.60
2017,05,26,18,52,1.60
2017,05,26,18,53,1.60
2017,05,26,18,54,3.20
2017,05,26,18,55,3.20
2017,05,26,18,56,1.60
2017,05,26,18,57,6.40
2017,05,26,18,58,3.20
2017,05,26,18,59,8.10
2017,05,26,19,00,8.10
2017,05,26,19,01,6.40
2017,05,26,19,02,8.10
2017,05,26,19,03,4.80
2017,05,26,19,04,6.40
2017,05,26,19,05,8.10
2017,05,26,19,06,6.40
2017,05,26,19,07,4.80
2017,05,26,19,08,3.20
2017,05,26,19,09,8.10
2017,05,26,19,10,8.10
2017,05,26,19,11,8.10
2017,05,26,19,12,8.10
2017,05,26,19,13,9.60
2017,05,26,19,14,9.60
2017,05,26,19,15,8.10
2017,05,26,19,16,6.40
2017,05,26,19,17,4.80
2017,05,26,19,18,4.80
2017,05,26,19,19,6.40
2017,05,26,19,20,4.80
2017,05,26,19,21,4.80
2017,05,26,19,22,3.20
2017,05,26,19,23,1.60
2017,05,26,19,25,1.60
2017,05,26,19,26,4.80
2017,05,26,19,27,1.60
2017,05,26,19,28,3.20
2017,05,26,19,29,1.60
2017,05,26,19,30,3.20
2017,05,26,19,31,1.60
2017,05,26,19,32,1.60
2017,05,26,19,33,1.60
2017,05,26,19,35,1.60
2017,05,26,19,36,1.60
2017,05,26,19,37,1.60
2017,05,26,19,38,3.20
2017,05,26,19,39,4.80
2017,05,26,19,40,1.60
2017,05,26,19,41,3.20
2017,05,26,19,42,3.20
2017,05,26,19,43,1.60
2017,05,26,19,44,3.20
2017,05,26,19,45,3.20
2017,05,26,19,46,3.20
2017,05,26,19,47,1.60
2017,05,26,19,48,1.60
2017,05,26,19,49,1.60
2017,05,26,19,51,1.60
2017,05,26,19,52,3.20
2017,05,26,19,53,1.60
2017,05,26,19,54,3.20
2017,05,26,19,55,1.60
2017,05,26,19,56,1.60
2017,05,26,19,58,3.20
2017,05,26,19,59,1.60
2017,05,26,20,01,1.60
2017,05,26,20,02,3.20
2017,05,26,20,04,1.60
2017,05,26,20,07,3.20
2017,05,26,20,08,1.60
2017,05,26,20,09,1.60
2017,05,26,20,14,3.20
2017,05,26,20,15,3.20
2017,05,26,20,16,1.60
2017,05,26,20,17,3.20
2017,05,26,20,19,4.80
2017,05,26,20,20,4.80
2017,05,26,20,21,1.60
2017,05,26,20,22,4.80
2017,05,26,20,23,6.40
2017,05,26,20,24,4.80
2017,05,26,20,25,3.20
2017,05,26,20,26,3.20
2017,05,26,20,27,1.60
2017,05,26,20,28,3.20
2017,05,26,20,29,3.20
2017,05,26,20,30,1.60
2017,05,26,20,34,3.20
2017,05,26,20,35,4.80
2017,05,26,20,36,3.20
2017,05,26,20,37,1.60
2017,05,26,20,38,4.80
2017,05,26,20,39,1.60
2017,05,26,20,40,3.20
2017,05,26,20,41,1.60
2017,05,26,20,43,1.60
2017,05,26,20,44,3.20
2017,05,26,20,45,4.80
2017,05,26,20,46,6.40
2017,05,26,20,47,4.80
2017,05,26,20,48,3.20
2017,05,26,20,50,3.20
2017,05,26,20,51,1.60
2017,05,26,20,55,1.60
2017,05,26,20,56,1.60
2017,05,26,20,57,1.60
2017,05,26,21,16,1.60
2017,05,26,21,24,1.60
2017,05,26,21,36,1.60
2017,05,26,21,40,1.60
2017,05,26,21,41,1.60
2017,05,26,21,45,4.80
2017,05,26,21,48,1.60
2017,05,26,21,50,1.60
2017,05,26,21,53,1.60
2017,05,26,21,54,1.60
2017,05,26,21,57,1.60
2017,05,26,21,58,1.60
2017,05,26,22,00,3.20
2017,05,26,22,01,3.20
2017,05,26,22,04,1.60
2017,05,26,22,14,1.60
